Content
SEND FEEDBACK

Daily
Averages
Monthly
Summary
United States of America

ALLEN, KANSAS


Home > North America > United States > Kansas
Elevation: 1400 feet     Latitude: 38 39N     Longitude: 096 15W

WEATHER
 
SELECT A DAY
Number of Records: 199,619;   Date Range: 1/1/95 - 9/30/14
 
SHARE

PRINT THIS DATA

[ ← Previous Day ]
WEATHER ALMANAC - JULY 20, 2014
[ Next Day → ]
[ °C ]   °F
Weather ElementAverageHighLow
Temperature75.3 °F88 °F (3:53 pm)61 °F (1:53 am)
Dewpoint65.7 °F70 °F (4:53 pm)60.1 °F (1:53 am)
Humidity74.2 %97 % (1:53 am)53 % (3:53 pm)
Barometer29.93 in29.98 in (6:53 am)29.87 in (6:53 pm)
Wind Speed14.7 mph19.6 mph (9:53 am)
Wind Gust31.1 mph (11:53 am)
Weather ElementAverage
Visibility10 mi
Wind DirectionSSE (170 °)

Weather ElementTotal
Precipitation---
Cooling Degree Days9.5 (Base 65)
Growing Degree Days24.5 (Base 50)
Averaged from 23 records on July 20, 2014
WEATHER CONDITIONS BREAKOUT
WIND DIRECTION BREAKOUT
WEATHER BY HOUR - JULY 20, 2014
[ °C ]   °F
Local TimeTemperatureDewpointHumidityBarometerVisibilityWind DirectionWind SpeedGust SpeedPrecipitationEventsConditions
1:53 AM61.0 °F60.1 °F97 %29.96 in10.0 miSSE (150°)6.9 mphClear
2:53 AM62.1 °F60.1 °F93 %29.96 in10.0 miSSE (160°)8.1 mphClear
3:53 AM62.1 °F61.0 °F96 %29.96 in10.0 miSouth (170°)10.4 mphClear
4:53 AM61.0 °F60.1 °F97 %29.96 in9.0 miSouth (170°)6.9 mphClear
5:53 AM62.1 °F61.0 °F96 %29.97 in10.0 miSouth (170°)10.4 mphClear
6:53 AM62.1 °F61.0 °F96 %29.98 in10.0 miSSE (160°)8.1 mphClear
7:53 AM66.0 °F63.0 °F90 %29.98 in10.0 miSouth (180°)13.8 mphScattered Clouds
8:53 AM69.1 °F63.0 °F81 %29.98 in10.0 miSouth (180°)13.8 mphOvercast
9:53 AM73.9 °F64.0 °F71 %29.97 in10.0 miSouth (190°)19.6 mph26.5 mphScattered Clouds
10:53 AM78.1 °F64.9 °F64 %29.95 in10.0 miSouth (170°)19.6 mphClear
11:53 AM81.0 °F66.0 °F60 %29.94 in10.0 miSouth (170°)18.4 mph31.1 mphPartly Cloudy
12:53 PM84.0 °F66.9 °F56 %29.93 in10.0 miSouth (170°)17.3 mph26.5 mphClear
1:53 PM87.1 °F69.1 °F55 %29.91 in10.0 miSSE (160°)19.6 mph27.6 mphClear
2:53 PM87.1 °F69.1 °F55 %29.90 in10.0 miSouth (180°)19.6 mph28.8 mphClear
3:53 PM88.0 °F69.1 °F53 %29.89 in10.0 miSouth (180°)17.3 mph24.2 mphClear
4:53 PM88.0 °F70.0 °F55 %29.88 in10.0 miSouth (190°)17.3 mph25.3 mphClear
5:53 PM87.1 °F70.0 °F57 %29.88 in10.0 miSouth (180°)15.0 mph24.2 mphClear
6:53 PM84.0 °F70.0 °F63 %29.87 in10.0 miSouth (170°)17.3 mphClear
7:53 PM82.0 °F69.1 °F65 %29.88 in10.0 miSSE (160°)19.6 mphClear
8:53 PM79.0 °F69.1 °F72 %29.89 in10.0 miSSE (160°)12.7 mphClear
9:53 PM77.0 °F69.1 °F76 %29.91 in10.0 miSSE (160°)13.8 mph20.7 mphClear
10:53 PM75.9 °F68.0 °F76 %29.92 in10.0 miSSE (160°)16.1 mphClear
11:53 PM73.9 °F68.0 °F82 %29.91 in10.0 miSouth (170°)16.1 mphClear
Hourly data recorded from KEMP, located miles away from Allen, Kansas







STORIES FROM OUR PARTNERS